Volver al catálogo

STARLINK-31048

ActivoComunicacionesVLEO
NORAD 58544·PAYLOAD·🇺🇸 United States

Lanzado Dec 8, 2023 desde Vandenberg Space Force Base

Loading…

Próximos Pases (próximas 24 horas)

TLE

ActualizadoSource: CelesTrak SupGP

Época: Sep 14, 2026, 22:26 UTC

1 58544C 23192P   26257.93520833  .00045096  00000+0  13320-2 0  2579
2 58544  53.1562 261.5466 0001156  93.9446 124.8069 15.34376600    14

Sigue STARLINK-31048 en tiempo real con AllMySat

Download on the App Store